User: anonymous
Location: Bakersfield
(35.3730°N, 119.0180°W)
Time: 07:23:49
(UTC-07:00)
Language:

Cosmos 1222 Rocket - Orbit

View from above orbital plane
View from above orbital plane
View from above satellite
View from above satellite

Ground track
Ground track

The orbit data is extracted from the following two-line orbital elements,

1 12072U 80093B   14265.49966584  .00037519  00000-0  44189-3 0  2291
2 12072 081.1841 206.4701 0012264 026.5541 333.6337 15.61120115861269
Epoch (UTC): 22 September 2014 11:59:31
Eccentricity: 0.0012264
inclination: 81.1841°
perigee height: 376 km
apogee height: 393 km
right ascension of ascending node: 206.4701°
argument of perigee: 26.5541°
revolutions per day: 15.61120115
mean anomaly at epoch: 333.6337°
orbit number at epoch: 86126

The dashed part of the orbit path shows where the satellite is in the earth's shadow,  

DLR